| time (UTC) | temp C | wind direction | speed KPH | gust KPH | rain 1hr cm | rain 24hr cm | rain mn cm | humidity % | barometer mb |
| 20260504214516 | 8 | 23 | 14.5 | 27.4 | 0.00 | 0.00 | 0.00 | 51 | 1011.0 |
| 20260504213519 | 8 | 45 | 12.9 | 30.6 | 0.00 | 0.00 | 0.00 | 47 | 1011.2 |
| 20260504212519 | 9 | 45 | 9.7 | 25.7 | 0.00 | 0.00 | 0.00 | 46 | 1011.4 |
| 20260504211519 | 11 | 23 | 16.1 | 32.2 | 0.00 | 0.00 | 0.00 | 41 | 1011.6 |
| 20260504210519 | 13 | 225 | 6.4 | 32.2 | 0.00 | 0.00 | 0.00 | 31 | 1012.1 |
| 20260504205519 | 13 | 293 | 4.8 | 14.5 | 0.00 | 0.00 | 0.00 | 30 | 1012.0 |
| 20260504204519 | 13 | 270 | 12.9 | 22.5 | 0.00 | 0.00 | 0.00 | 30 | 1012.0 |
| 20260504203519 | 13 | 270 | 6.4 | 19.3 | 0.00 | 0.00 | 0.00 | 36 | 1012.1 |
| 20260504202519 | 12 | 270 | 11.3 | 20.9 | 0.00 | 0.00 | 0.00 | 38 | 1012.1 |
| 20260504201536 | 11 | 270 | 14.5 | 29.0 | 0.00 | 0.00 | 0.00 | 42 | 1012.4 |
| 20260504200516 | 11 | 248 | 11.3 | 19.3 | 0.00 | 0.00 | 0.00 | 43 | 1012.2 |
| 20260504195516 | 10 | 225 | 14.5 | 22.5 | 0.00 | 0.00 | 0.00 | 44 | 1012.1 |
| 20260504194516 | 9 | 225 | 12.9 | 25.7 | 0.00 | 0.00 | 0.00 | 46 | 1012.2 |
| 20260504193516 | 10 | 225 | 14.5 | 27.4 | 0.00 | 0.00 | 0.00 | 45 | 1012.6 |
| 20260504192516 | 10 | 225 | 14.5 | 33.8 | 0.00 | 0.00 | 0.00 | 43 | 1012.7 |
| 20260504191516 | 10 | 270 | 11.3 | 22.5 | 0.00 | 0.00 | 0.00 | 38 | 1012.8 |
| 20260504190516 | 10 | 270 | 19.3 | 35.4 | 0.00 | 0.00 | 0.00 | 35 | 1012.7 |
| 20260504185536 | 11 | 270 | 22.5 | 45.1 | 0.00 | 0.00 | 0.00 | 36 | 1012.6 |
| 20260504184536 | 11 | 270 | 16.1 | 27.4 | 0.00 | 0.00 | 0.00 | 36 | 1012.9 |
| 20260504183536 | 11 | 270 | 9.7 | 19.3 | 0.00 | 0.00 | 0.00 | 36 | 1013.0 |
| 20260504182516 | 11 | 248 | 8.0 | 14.5 | 0.00 | 0.00 | 0.00 | 37 | 1013.2 |
| 20260504181516 | 11 | 270 | 6.4 | 14.5 | 0.00 | 0.00 | 0.00 | 37 | 1013.2 |
| 20260504180516 | 11 | 293 | 11.3 | 20.9 | 0.00 | 0.00 | 0.00 | 37 | 1013.1 |
| 20260504175516 | 11 | 270 | 11.3 | 19.3 | 0.00 | 0.00 | 0.00 | 37 | 1013.3 |
| 20260504174539 | 11 | 270 | 12.9 | 24.1 | 0.00 | 0.00 | 0.00 | 38 | 1013.4 |
| 20260504173519 | 11 | 225 | 11.3 | 25.7 | 0.00 | 0.00 | 0.00 | 38 | 1013.6 |
| 20260504172539 | 10 | 270 | 11.3 | 22.5 | 0.00 | 0.00 | 0.00 | 38 | 1013.8 |
| 20260504171515 | 10 | 270 | 8.0 | 24.1 | 0.00 | 0.00 | 0.00 | 40 | 1013.9 |
| 20260504170516 | 10 | 270 | 14.5 | 29.0 | 0.00 | 0.00 | 0.00 | 40 | 1013.8 |
| 20260504150515 | 8 | 248 | 20.9 | 37.0 | 0.00 | 0.00 | 0.00 | 44 | 1013.5 |
| 20260504140519 | 8 | 225 | 12.9 | 41.8 | 0.00 | 0.00 | 0.00 | 41 | 1014.1 |
| 20260504130535 | 8 | 225 | 14.5 | 24.1 | 0.00 | 0.00 | 0.00 | 35 | 1014.3 |
| 20260504110515 | 4 | 225 | 6.4 | 9.7 | 0.00 | 0.00 | 0.00 | 40 | 1013.5 |
| 20260504100518 | 3 | 203 | 9.7 | 11.3 | 0.00 | 0.00 | 0.00 | 50 | 1013.4 |
| 20260504081518 | 3 | 225 | 11.3 | 17.7 | 0.00 | 0.00 | 0.00 | 49 | 1014.3 |
| 20260504080519 | 3 | 225 | 11.3 | 19.3 | 0.00 | 0.00 | 0.00 | 51 | 1014.2 |
| 20260504050520 | 6 | 225 | 11.3 | 20.9 | 0.00 | 0.00 | 0.00 | 47 | 1015.8 |
| 20260504045520 | 6 | 225 | 11.3 | 19.3 | 0.00 | 0.00 | 0.00 | 46 | 1015.8 |
| 20260504044516 | 5 | 203 | 8.0 | 12.9 | 0.00 | 0.00 | 0.00 | 49 | 1015.7 |
| 20260504043516 | 6 | 225 | 9.7 | 14.5 | 0.00 | 0.00 | 0.00 | 48 | 1016.0 |
| 20260504042516 | 6 | 225 | 9.7 | 14.5 | 0.00 | 0.00 | 0.00 | 47 | 1015.8 |
| 20260504041520 | 6 | 203 | 8.0 | 16.1 | 0.00 | 0.00 | 0.00 | 48 | 1016.1 |
| 20260504040520 | 7 | 203 | 6.4 | 11.3 | 0.00 | 0.00 | 0.00 | 45 | 1016.1 |
| 20260504035520 | 7 | 203 | 6.4 | 9.7 | 0.00 | 0.00 | 0.00 | 43 | 1016.0 |
| 20260504034517 | 7 | 203 | 3.2 | 6.4 | 0.00 | 0.00 | 0.00 | 44 | 1016.1 |
| 20260504033516 | 7 | 203 | 3.2 | 6.4 | 0.00 | 0.00 | 0.00 | 43 | 1016.2 |
| 20260504032516 | 7 | 0.0 | 3.2 | 0.00 | 0.00 | 0.00 | 42 | 1016.0 | |
| 20260504031520 | 7 | 203 | 1.6 | 3.2 | 0.00 | 0.00 | 0.00 | 42 | 1015.9 |
| 20260504030520 | 8 | 203 | 1.6 | 4.8 | 0.00 | 0.00 | 0.00 | 43 | 1015.9 |
| 20260504025520 | 8 | 248 | 3.2 | 9.7 | 0.00 | 0.00 | 0.00 | 42 | 1015.6 |
| 20260504024520 | 8 | 203 | 3.2 | 8.0 | 0.00 | 0.00 | 0.00 | 40 | 1015.5 |
| 20260504023520 | 9 | 203 | 4.8 | 11.3 | 0.00 | 0.00 | 0.00 | 39 | 1015.8 |
| 20260504022537 | 9 | 225 | 6.4 | 11.3 | 0.00 | 0.00 | 0.00 | 38 | 1015.6 |
| 20260504021516 | 10 | 225 | 6.4 | 14.5 | 0.00 | 0.00 | 0.00 | 37 | 1015.7 |
| 20260504020517 | 10 | 203 | 9.7 | 17.7 | 0.00 | 0.00 | 0.00 | 36 | 1015.6 |
| 20260504015516 | 10 | 203 | 8.0 | 17.7 | 0.00 | 0.00 | 0.00 | 35 | 1015.5 |
| 20260504014516 | 10 | 225 | 6.4 | 17.7 | 0.00 | 0.00 | 0.00 | 34 | 1015.5 |
| 20260504013516 | 10 | 225 | 6.4 | 14.5 | 0.00 | 0.00 | 0.00 | 34 | 1015.4 |
| 20260504012536 | 10 | 248 | 4.8 | 12.9 | 0.00 | 0.00 | 0.00 | 34 | 1015.4 |
| 20260504011517 | 11 | 270 | 8.0 | 16.1 | 0.00 | 0.00 | 0.00 | 34 | 1015.4 |
| 20260504010520 | 11 | 248 | 8.0 | 14.5 | 0.00 | 0.00 | 0.00 | 34 | 1015.5 |
| 20260504005519 | 11 | 270 | 11.3 | 17.7 | 0.00 | 0.00 | 0.00 | 33 | 1015.7 |
| 20260504004520 | 11 | 270 | 12.9 | 20.9 | 0.00 | 0.00 | 0.00 | 33 | 1015.6 |
| 20260504003520 | 11 | 270 | 20.9 | 38.6 | 0.00 | 0.00 | 0.00 | 32 | 1015.9 |
| 20260504002539 | 12 | 293 | 16.1 | 27.4 | 0.00 | 0.00 | 0.00 | 31 | 1015.9 |
| 20260504001539 | 12 | 293 | 22.5 | 35.4 | 0.00 | 0.00 | 0.00 | 31 | 1015.8 |
| 20260504000516 | 11 | 270 | 16.1 | 24.1 | 0.00 | 0.00 | 0.00 | 33 | 1015.6 |
| 20260503235516 | 11 | 293 | 19.3 | 32.2 | 0.00 | 0.00 | 0.00 | 34 | 1015.8 |
| 20260503234516 | 11 | 270 | 29.0 | 49.9 | 0.00 | 0.00 | 0.00 | 36 | 1016.0 |
| 20260503233516 | 12 | 270 | 20.9 | 46.7 | 0.00 | 0.00 | 0.00 | 31 | 1016.4 |
| 20260503232516 | 12 | 270 | 11.3 | 22.5 | 0.00 | 0.00 | 0.00 | 31 | 1016.5 |
| 20260503231516 | 11 | 225 | 16.1 | 30.6 | 0.00 | 0.00 | 0.00 | 31 | 1016.1 |
| 20260503230519 | 11 | 248 | 19.3 | 38.6 | 0.00 | 0.00 | 0.00 | 34 | 1016.2 |
| 20260503225536 | 12 | 270 | 17.7 | 37.0 | 0.00 | 0.00 | 0.00 | 27 | 1015.8 |
| 20260503224516 | 13 | 248 | 4.8 | 11.3 | 0.00 | 0.00 | 0.00 | 28 | 1015.4 |
| 20260503223516 | 13 | 225 | 6.4 | 12.9 | 0.00 | 0.00 | 0.00 | 29 | 1015.6 |
| 20260503222516 | 12 | 203 | 14.5 | 30.6 | 0.00 | 0.00 | 0.00 | 31 | 1016.1 |
| 20260503221516 | 12 | 270 | 12.9 | 37.0 | 0.00 | 0.00 | 0.00 | 29 | 1015.8 |
| 20260503220520 | 12 | 270 | 9.7 | 17.7 | 0.00 | 0.00 | 0.00 | 27 | 1015.8 |
| 20260503215520 | 12 | 338 | 1.6 | 8.0 | 0.00 | 0.00 | 0.00 | 27 | 1016.2 |